Regional Weather Roundup
Issued by NWS

Home | Current Version | Previous Version | Graphics & Text | Print | Product List | Glossary On
Versions: 1 2 3 4 5 6 7 8 9 10 11 12 13 14 15 16 17 18 19 20 21 22 23 24 25 26 27 28 29 30 31 32 33 34 35 36 37 38 39 40 41 42 43 44 45 46 47 48 49 50
000
ASUS44 KMEG 250110
RWRTN
TENNESSEE HOURLY STATE WEATHER ROUNDUP
NATIONAL WEATHER SERVICE MEMPHIS TN
700 PM CST FRI NOV 24 2017

TNZ002-004-019-021-049-052-054-088>092-250200-
WEST TENNESSEE

CITY           SKY/WX    TMP DP  RH WIND       PRES   REMARKS
MEMPHIS INTL   PTCLDY    52  32  46 S8        29.89R
NWS MEMPHIS      N/A     55 N/A N/A MISG        N/A
JACKSON        CLEAR     53  31  42 S9        29.89R
DYERSBURG      CLEAR     55  33  43 S6        29.86S
SOMERVILLE     CLEAR     54  32  43 S7        29.88S
COVINGTON      CLEAR     52  32  46 S3        29.88S
UNION CITY     CLEAR     48  34  57 S10       29.84S
BOLIVAR        CLEAR     48  30  49 S6        29.90R
PARIS          CLEAR     52  32  46 S10       29.84F HAZE
HUNTINGDON     CLEAR     52  30  43 S8        29.86S
LEXINGTON      CLEAR     52  28  40 S5        29.89R
SELMER         CLEAR     52  27  37 S5        29.91R
SAVANNAH       CLEAR     43  32  65 S3        29.91R
$$

TNZ008-025-027-028-033-062-065-066-250200-
NORTH MIDDLE TENNESSEE

CITY           SKY/WX    TMP DP  RH WIND       PRES   REMARKS
NASHVILLE      PTCLDY    50  31  48 S6        29.90R
PORTLAND       CLEAR     50  28  43 S7        29.88R
CLARKSVILLE    CLEAR     52  24  33 S6        29.86S
SMYRNA         CLEAR     43  34  70 S3        29.92R
COOKEVILLE     CLEAR     39  34  81 CALM      29.91R
GALLATIN       CLEAR     52  32  46 CALM      29.92R
CROSSVILLE     CLOUDY    49  37  63 S3        29.93R
$$

TNZ061-075-076-078-094-096-097-250200-
SOUTH MIDDLE TENNESSEE

CITY           SKY/WX    TMP DP  RH WIND       PRES   REMARKS
FAYETTEVILLE   CLEAR     48  37  66 SW5       29.92R
TULLAHOMA      CLEAR     43  36  75 CALM      29.92R
WINCHESTER     CLEAR     41  37  87 CALM      29.94R
MCMINNVILLE    CLEAR     50  39  66 CALM      29.92R
COLUMBIA       CLEAR     46  28  49 CALM      29.90R
SHELBYVILLE    CLEAR     46  36  66 S3        29.92R
$$

TNZ017-018-042-046-047-250200-
NORTHEAST TENNESSEE

CITY           SKY/WX    TMP DP  RH WIND       PRES   REMARKS
TRI CITIES     MOCLDY    40  34  79 CALM      29.93S
ELIZABETHTON   CLEAR     39  36  87 CALM      29.95R
$$

TNZ012-013-036-069-073-074-250200-
CENTRAL EAST TENNESSEE

CITY           SKY/WX    TMP DP  RH WIND       PRES   REMARKS
KNOXVILLE      MOCLDY    51  40  65 CALM      29.92R
OAK RIDGE      PTCLDY    47  40  76 CALM      29.93S
DOWNTOWN KNOXV   N/A     45  41  87 CALM      29.93S
GATLINBURG     CLEAR     45  39  81 CALM      29.93R
MORRISTOWN     CLEAR     46  39  76 CALM      29.92S
JACKSBORO      CLEAR     43  37  81 CALM      29.95S
$$

TNZ083-085-099-250200-
SOUTHEAST TENNESSEE

CITY           SKY/WX    TMP DP  RH WIND       PRES   REMARKS
CHATTANOOGA    PTCLDY    49  41  74 CALM      29.94R
DAYTON         MOCLDY    46  43  87 CALM      29.93R
$$

SKY/WX REPORTED AS FAIR MEANS FEW OR NO CLOUDS BELOW
12 THOUSAND FEET.





USA.gov is the U.S. government's official web portal to all federal, state and local government web resources and services.